Tracking 27126 objects as of 31-Mar-2023
HD Live streaming from Space Station
objects crossing your sky now

CERES 3

Track CERES 3 now!
10-day predictions


NORAD ID: 49466
Int'l Code: 2021-105C
Perigee: 677.0 km
Apogee: 679.9 km
Inclination: 75.0 °
Period: 98.2 minutes
Semi major axis: 7049 km
RCS: Unknown
Launch date: November 16, 2021
Source: France (FR)
Launch site: FRENCH GUIANA (FRGUI)
Your satellite tracking list
Your tracking list is empty




NASA's NSSDC Master Catalog

Two Line Element Set (TLE):
1 49466U 21105C   23041.16586911 0.00000628  00000-0  11256-3 0    02
2 49466  75.0114  49.5128 0002051 284.5232  75.4811 14.66797713    09
Source of the keplerian elements: McCants